Location: Berg
(47.2344°N, 9.5296°E)
Time: 22:53:51
(UTC+00:00)

Cosmos 2082 Rocket - Pass Details

Date: 24 January 2021
Orbit: 832 x 854 km, 71.0° (Epoch: 04 March)

Event Time Altitude Azimuth Distance (km) Brightness Sun altitude
Rises 16:50:50 0° 339° (NNW) 3,437 5.4 -6.8°
Reaches altitude 10° 16:54:35 10° 3° (N) 2,497 4.4 -7.4°
Maximum altitude 16:57:39 15° 35° (NE) 2,186 3.9 -7.9°
Enters shadow 17:00:39 10° 68° (ENE) 2,478 3.9 -8.4°
